Find Starlink 31820

NORAD ID: 59725 Int'l Des: 2024-088 Owner: SPXS Country: US Constellation: starlink operational
LEOCIRCULAR

实时位置

正在加载3D地球...

关于 Starlink 31820

正在加载描述...

即将过境

Passes for default location (London). Set your location on the main map for personalized predictions.

高度历史

Loading altitude history...

两行轨道根数

1 59725U 24088T 26125.59863505 .00001419 00000-0 57445-4 0 9991
2 59725 53.1604 235.6796 0000878 61.4583 298.6507 15.31713993112392
Epoch: May 5, 2026 • Age: 10 hours

当前状态

高度 474.8 km
速度 7.63 km/s
星下点 45.11°N, 57.85°E
发射日期 May 10, 2024
运行时间 1.9 years
类型 internet

技术详情

分类 Payload
质量 730.00 kg
干质量 700.00 kg
总质量 730.00 kg
长度 0.30 m
直径 4.10 m
跨度 29.00 m
形状 Box + pan
制造商 SPXS
平台类型 Starlink V2M
阶段状态 In Orbit
所有者/国家 SPXS/US

Most Searched